Regional Weather Roundup
Issued by NWS

Home | Current Version | Previous Version | Graphics & Text | Print | Product List | Glossary On
Versions: 1 2 3 4 5 6 7 8 9 10 11 12 13 14 15 16 17 18 19 20 21 22 23 24 25 26 27 28 29 30 31 32 33 34 35 36 37 38 39 40 41 42 43 44 45 46 47 48 49 50
000
ASUS43 KDMX 231906
RWRIA

WEATHER ROUNDUP FOR IOWA
NATIONAL WEATHER SERVICE DES MOINES IA
200 PM CDT FRI JUN 23 2017

NOTE: "FAIR" INDICATES FEW OR NO CLOUDS BELOW 12,000 FEET WITH NO
SIGNIFICANT WEATHER AND/OR OBSTRUCTIONS TO VISIBILITY.

* - THESE STATIONS ARE NOT NWS STATIONS...THUS NOT UNDER NWS
QUALITY CONTROL.  THEY ALSO DO NOT REPORT WEATHER SUCH
AS PRECIPITATION OR FOG.

IAZ001>003-012>014-020>022-031>034-043>046-232000-
   NORTHWEST IOWA

CITY           SKY/WX    TMP DP  RH WIND       PRES   REMARKS
CARROLL *      CLOUDY    70  52  52 NW25      29.95S
CHEROKEE *     CLOUDY    67  53  60 NW18G24   29.96F
DENISON *      CLOUDY    68  52  56 NW20G26   29.99F
LE MARS *      CLOUDY    68  52  56 NW18G28   30.00S
ORANGE CITY *  CLOUDY    64  52  63 NW14G24   29.98F
SHELDON *      CLOUDY    66  50  55 NW17G28   29.95F
SIOUX CITY     MOSUNNY   72  52  49 NW24G31   29.98F
SPENCER        CLOUDY    65  51  60 NW22      29.95R
STORM LAKE *   CLOUDY    68  50  52 NW20G31   29.96F
$$

IAZ055>058-069>071-079>083-090>094-232000-
   SOUTHWEST IOWA

CITY           SKY/WX    TMP DP  RH WIND       PRES   REMARKS
ATLANTIC *     CLOUDY    68  54  60 N16G26    29.98R
AUDUBON *      CLOUDY    70  54  56 NW17G24   29.98S
CLARINDA *     CLOUDY    72  54  53 N14G20    29.99F
COUNCIL BLFS * MOSUNNY   70  52  52 NW17G29   30.00F
CRESTON *      CLOUDY    70  54  56 NW20G25   29.95F
HARLAN  *      CLOUDY    70  52  52 NW22G28   30.02F
LAMONI         MOSUNNY   75  52  44 NW23G30   29.92S
RED OAK *      MOSUNNY   72  55  56 NW17      29.99S
SHENANDOAH *   PTSUNNY   70  54  56 NW15G21   30.00F
$$

IAZ047>049-059>061-072>074-084-232000-
   CENTRAL IOWA

CITY           SKY/WX    TMP DP  RH WIND       PRES   REMARKS
AMES           CLOUDY    72  55  55 NW16G24   29.90F
ANKENY *       CLOUDY    72  52  49 NW18G25   29.90F
BOONE *        CLOUDY    72  54  53 NW20G30   29.90F
CHARITON *     SUNNY     75  52  43 NW22G33   29.90R
DES MOINES     CLOUDY    73  51  46 NW18G30   29.89S
GRINNELL*      MOSUNNY   74  54  48 NW23G31   29.88R
KNOXVILLE *    MOSUNNY   75  52  43 NW22G28   29.87S
MARSHALLTOWN   PTSUNNY   70  54  56 NW20G31   29.87S
NEWTON *       MOSUNNY   75  54  46 N25       29.88S
PELLA *        MOSUNNY   76  53  44 NW21G29   29.89R
PERRY *          N/A     71  54  54 NW10G22   29.93F
$$

IAZ004>006-015-016-023>025-035-036-232000-
   NORTH CENTRAL IOWA

CITY           SKY/WX    TMP DP  RH WIND       PRES   REMARKS
ALGONA *       CLOUDY    70  52  52 NW23G31   29.91R
CLARION *        N/A     70  55  60 NW22G29   29.89F
ESTHERVILLE    PTSUNNY   65  54  67 NW25G32   29.92S
FORT DODGE *   PTSUNNY   70  52  52 NW15      29.93R
MASON CITY     CLOUDY    68  54  60 NW24      29.88F
FOREST CITY *  PTSUNNY   70  45  40 NW23      29.88S
WEBSTER CITY * CLOUDY    70  54  56 NW21G29   29.89S
IOWA FALLS *   CLOUDY    70  55  60 W17G26    29.90S
$$

IAZ007>011-017>019-026>030-037>042-050>054-066-232000-
   NORTHEAST IOWA

CITY           SKY/WX    TMP DP  RH WIND       PRES   REMARKS
CEDAR RAPIDS   SUNNY     76  58  53 NW17G26   29.81R
CHARLES CITY * CLOUDY    68  55  64 NW14G28   29.86R
CLINTON *      PTSUNNY   80  60  50 NW20      29.76F HX  81
DECORAH *      PTSUNNY   70  54  56 NW16G31   29.80S
DUBUQUE        MOSUNNY   78  54  43 W18G30    29.77S
MONTICELLO *   MOSUNNY   77  54  44 NW17G29   29.78R
OELWEIN *      PTSUNNY   70  55  60 NW23G31   29.84R
WATERLOO       CLOUDY    70  53  54 NW21G29   29.84R
$$

IAZ064-065-067-068-078-232000-
   EAST CENTRAL IOWA

CITY           SKY/WX    TMP DP  RH WIND       PRES   REMARKS
DAVENPORT      MOSUNNY   79  57  46 NW17      29.77F HX  80
IOWA CITY      PTSUNNY   83  54  36 NW22      29.80S HX  82
MT. PLEASANT * SUNNY     80  50  34 NW13      29.80F HX  80
MUSCATINE *    SUNNY     82  50  32 NW20G26   29.78F HX  81
QUAD CITIES    MOSUNNY   83  56  39 NW13      29.76F HX  82
$$

IAZ062-063-075>077-085>089-095>099-232000-
   SOUTHEAST IOWA

CITY           SKY/WX    TMP DP  RH WIND       PRES   REMARKS
BURLINGTON     MOSUNNY   81  59  47 NW8       29.79F HX  81
FAIRFIELD *    MOSUNNY   81  52  36 W20       29.81F HX  80
FORT MADISON * MOSUNNY   82  57  42 NW14G20   29.81F HX  82
KEOKUK *       SUNNY     82  57  42 N9G17     29.80S HX  82
OSKALOOSA *      N/A     79  51  37 NW22G28   29.85S
CENTERVILLE *    N/A     79  50  36 NW17G24   29.89R
OTTUMWA        CLOUDY    82  51  34 NW21G26   29.84R HX  81
WASHINGTON *   MOSUNNY   81  52  36 NW17G25   29.81F HX  80
$$

ABBREVIATIONS USED IN REMARKS
   TC - TEMPERATURES IN CELSIUS
  WCI - WIND CHILL INDEX
   HX - HEAT INDEX
  VSB - VISIBILITY
$$





USA.gov is the U.S. government's official web portal to all federal, state and local government web resources and services.